STARLINK-1693 (46543 NORAD) Tracking and Keplerian Element Data

This shows tracking and keplerian element data for the satellite.

Feedback or suggestion? Click here.




ElementValue
Catalog46543
NameSTARLINK-1693
Epoch Orbit174
Epoch Day335.91670139
Epoch Year2020
RAAN177.2507
Inclination53.0004
Eccentricity0.0001611
Argument of Perigee78.725
Mean Anonmoly131.5291
Mean Motion15.05557856
Decay Rate0.00010713
L11 46543U 20070M 20335.91670139 .00010713 00000-0 75373-3 0 9990
L22 46543 53.0004 177.2507 0001611 78.7250 131.5291 15.05557856 1744

Live tracking and technical data element details for STARLINK-1693 (NORAD 46543). STARLINK-1693 can be tracked NOW for your location showing map with azimuth and elevation plus other details from your city location.

Track the satellite on the map from your city or location and see movement details for azimuth, elevation, latitude, longitude, range, height, and movement on the map or in text.







IsCatalogInMostPopularTable: catalog: 46543, numindb: 14
Update: records affected: 1



GetName: 46543 STARLINK-1693

Hit Count: updated at: Wed, 02 Dec 2020 06:19:08 GMT